Weather in Semiluky

Russia / Voronezh Oblast     51°41′42″N   39°01′08″E
temp.,
°C
wind,
m/s
gust,
m/s
humid.,
%
clouds,
%
prec.,
mm/h
press.,
hPa
HPBL,
m
7 march, sun
sun700:00−7wnw48804 0.0 1020314
03:00−8w497910 0.0 1020298
06:00−8wsw49870 0.0 1018321
09:00−5wsw6128216 0.0 1016714
12:00−3sw81464100 0.0 10131029
15:00−1sw101857100 0.0 10081337
18:00−1wsw91873100 0.0 10051344
21:00−1wsw91885100 0.1 10031236
8 march, mon
mon800:00−1w81494100 0.4 10041057
03:00−3wsw4107397 0.6 1005366
06:00−3sw597699 0.0 1004374
09:00−2wsw51088100 0.2 1004746
12:00−1w5979100 0.4 10051042
15:00−1w61067100 0.6 10061427
18:00−3wnw597592 0.1 1007937
21:00−4wnw498360 0.1 1009461
9 march, tue
tue900:00−5nw358771 0.1 1010323
03:00−6nnw358485 0.2 1011319
06:00−9nw358229 0.0 1013268
09:00−9nw358133 0.0 1014302
12:00−7nw457313 0.0 1015554
15:00−6nw467444 0.0 1017801
18:00−7nw5679100 0.1 1018808
21:00−9nnw477682 0.1 1020750
10 march, wed
wed1000:00−10nnw468353 0.0 1021514
03:00−12nw468470 0.0 1023379
06:00−13nw368320 0.0 1024326
09:00−13nnw457811 0.0 1025373
12:00−11nnw35606 0.0 1026645
15:00−10nnw345248 0.0 1027694
18:00−11nnw3360100 0.0 1027528
21:00−11nne236791 0.0 1028403
11 march, thu
thu1100:00−12ene226755 0.0 1029388
03:00−12ese227247 0.0 1030269
06:00−13se237149 0.0 1030193
09:00−12se246263 0.0 1031283
12:00−8s345332 0.0 1031546
15:00−5s355536 0.0 1030811
18:00−6s36600 0.0 1029591
21:00−7sse49610 0.0 1029380